AMOS-17

Last updated on July 6, 2021, 3:31 p.m. UTC

1 44479U 19050A   21186.86565250  .00000119  00000-0  00000-0 0  9999
2 44479   0.0161 307.0321 0001925 153.6327 152.0114  1.00272791  7064
UTC
Height (km)
Latitude
Longitude
Inclination
Orbital Period
UTC large
Height (km)
Speed (km/s)
/
Latitude / Longitude
Inclination (degrees)
Orbital Period (minutes)
Azimuth
Elevation
Range (km)
Doppler Factor
iOS Compass Heading
iOS Angle

Next 30 passes for location: Hong Kong

Rise time Rise Azimuth (degrees) Set time Set Azimuth (degrees) Duration Max altitude (degrees)

No matching passes for this satellites